TimeCST,TemperatureF,Dew PointF,Humidity,Sea Level PressureIn,VisibilityMPH,Wind Direction,Wind SpeedMPH,Gust SpeedMPH,PrecipitationIn,Events,Conditions,WindDirDegrees,DateUTC
12:53 AM,42.1,35.1,76,30.14,10.0,West,4.6,-,N/A,,Clear,280,2013-03-01 06:53:00
1:53 AM,43.0,33.1,68,30.12,10.0,West,5.8,-,N/A,,Clear,280,2013-03-01 07:53:00
2:53 AM,43.0,33.1,68,30.12,10.0,WNW,3.5,-,N/A,,Clear,290,2013-03-01 08:53:00
3:53 AM,42.1,33.1,70,30.12,10.0,West,4.6,-,N/A,,Clear,260,2013-03-01 09:53:00
4:53 AM,41.0,32.0,70,30.12,10.0,Calm,Calm,-,N/A,,Clear,0,2013-03-01 10:53:00
5:53 AM,39.9,32.0,73,30.13,10.0,West,3.5,-,N/A,,Clear,280,2013-03-01 11:53:00
6:53 AM,39.0,32.0,76,30.14,10.0,West,5.8,-,N/A,,Clear,260,2013-03-01 12:53:00
7:53 AM,43.0,33.1,68,30.16,10.0,WNW,8.1,-,N/A,,Clear,300,2013-03-01 13:53:00
8:53 AM,48.0,35.1,61,30.17,10.0,Variable,4.6,-,N/A,,Clear,0,2013-03-01 14:53:00
9:53 AM,53.1,33.1,47,30.17,10.0,NW,8.1,-,N/A,,Clear,320,2013-03-01 15:53:00
10:53 AM,55.0,32.0,42,30.17,10.0,West,13.8,20.7,N/A,,Clear,280,2013-03-01 16:53:00
11:53 AM,55.0,32.0,42,30.15,10.0,NW,12.7,19.6,N/A,,Clear,320,2013-03-01 17:53:00
12:53 PM,55.0,30.0,38,30.13,10.0,NW,11.5,27.6,N/A,,Clear,320,2013-03-01 18:53:00
1:53 PM,55.9,28.9,36,30.11,10.0,West,11.5,21.9,N/A,,Clear,270,2013-03-01 19:53:00
2:53 PM,57.0,28.9,34,30.09,10.0,West,15.0,25.3,N/A,,Clear,280,2013-03-01 20:53:00
3:53 PM,55.9,28.9,36,30.09,10.0,NW,10.4,19.6,N/A,,Clear,310,2013-03-01 21:53:00
4:53 PM,55.9,26.1,32,30.09,10.0,NW,10.4,16.1,N/A,,Clear,320,2013-03-01 22:53:00
5:53 PM,53.1,26.1,35,30.11,10.0,NW,9.2,-,N/A,,Clear,320,2013-03-01 23:53:00
6:53 PM,51.1,27.0,39,30.14,10.0,NW,4.6,-,N/A,,Scattered Clouds,320,2013-03-02 00:53:00
7:53 PM,48.2,26.6,43,30.15,10.0,NNW,4.6,-,N/A,,Clear,330,2013-03-02 01:53:00
8:53 PM,46.9,30.0,52,30.17,10.0,North,3.5,-,N/A,,Mostly Cloudy,10,2013-03-02 02:53:00
9:53 PM,45.0,30.9,58,30.18,10.0,NNE,3.5,-,N/A,,Clear,20,2013-03-02 03:53:00
10:53 PM,42.1,30.9,65,30.18,10.0,NE,3.5,-,N/A,,Clear,50,2013-03-02 04:53:00
11:53 PM,39.9,30.9,70,30.18,10.0,Calm,Calm,-,N/A,,Clear,0,2013-03-02 05:53:00